Time,TemperatureF,DewpointF,PressureIn,WindDirection,WindDirectionDegrees,WindSpeedMPH,WindSpeedGustMPH,Humidity,HourlyPrecipIn,Conditions,Clouds,dailyrainin,SoftwareType,DateUTC
2013-01-26 00:02:00,33.5,32.0,30.23,NNE,14,1.0,1.0,95,0.00,,,0.13,weatherlink.com 1.10,2013-01-26 06:02:00,
2013-01-26 00:17:00,33.1,32.0,30.23,NNE,14,0.0,1.0,95,0.00,,,0.13,weatherlink.com 1.10,2013-01-26 06:17:00,
2013-01-26 00:32:00,32.9,32.0,30.23,NNE,14,0.0,0.0,95,0.00,,,0.00,weatherlink.com 1.10,2013-01-26 06:32:00,
2013-01-26 00:47:00,32.8,32.0,30.22,NNE,14,0.0,0.0,95,0.00,,,0.00,weatherlink.com 1.10,2013-01-26 06:47:00,
2013-01-26 01:02:00,32.7,32.0,30.23,NNE,14,0.0,0.0,95,0.00,,,0.00,weatherlink.com 1.10,2013-01-26 07:02:00,
2013-01-26 01:17:00,32.4,31.0,30.23,NNE,14,0.0,0.0,95,0.00,,,0.00,weatherlink.com 1.10,2013-01-26 07:17:00,
2013-01-26 01:32:00,32.3,31.0,30.24,NNE,14,0.0,0.0,95,0.00,,,0.00,weatherlink.com 1.10,2013-01-26 07:32:00,
2013-01-26 01:47:00,32.2,31.0,30.24,NNE,14,0.0,0.0,95,0.00,,,0.00,weatherlink.com 1.10,2013-01-26 07:47:00,
2013-01-26 02:02:00,31.8,31.0,30.24,NNE,14,0.0,1.0,95,0.00,,,0.00,weatherlink.com 1.10,2013-01-26 08:02:00,
2013-01-26 02:17:00,31.6,30.0,30.24,NNE,14,0.0,0.0,95,0.00,,,0.00,weatherlink.com 1.10,2013-01-26 08:17:00,
2013-01-26 02:32:00,31.3,30.0,30.24,NNE,14,0.0,0.0,95,0.00,,,0.00,weatherlink.com 1.10,2013-01-26 08:32:00,
2013-01-26 02:47:00,31.1,30.0,30.24,NNE,14,0.0,0.0,95,0.00,,,0.00,weatherlink.com 1.10,2013-01-26 08:47:00,
2013-01-26 03:02:00,30.8,30.0,30.24,NNE,14,0.0,0.0,95,0.00,,,0.00,weatherlink.com 1.10,2013-01-26 09:02:00,
2013-01-26 03:17:00,30.6,29.0,30.23,NNE,14,0.0,0.0,95,0.00,,,0.00,weatherlink.com 1.10,2013-01-26 09:17:00,
2013-01-26 03:32:00,30.5,29.0,30.24,NNE,14,0.0,0.0,95,0.00,,,0.00,weatherlink.com 1.10,2013-01-26 09:32:00,
2013-01-26 03:47:00,30.5,30.0,30.24,NNE,14,0.0,0.0,96,0.00,,,0.00,weatherlink.com 1.10,2013-01-26 09:47:00,
2013-01-26 04:02:00,30.5,30.0,30.25,NNE,14,0.0,0.0,96,0.00,,,0.00,weatherlink.com 1.10,2013-01-26 10:02:00,
2013-01-26 04:17:00,30.4,29.0,30.25,NNE,14,0.0,0.0,96,0.00,,,0.00,weatherlink.com 1.10,2013-01-26 10:17:00,
2013-01-26 04:32:00,30.3,29.0,30.25,NNE,14,0.0,1.0,96,0.00,,,0.00,weatherlink.com 1.10,2013-01-26 10:32:00,
2013-01-26 04:47:00,30.2,29.0,30.25,NNE,14,0.0,0.0,96,0.00,,,0.00,weatherlink.com 1.10,2013-01-26 10:47:00,
2013-01-26 05:02:00,30.2,29.0,30.25,NNE,14,0.0,1.0,96,0.00,,,0.00,weatherlink.com 1.10,2013-01-26 11:02:00,
2013-01-26 05:18:00,30.1,29.0,30.25,NNE,14,0.0,0.0,96,0.00,,,0.00,weatherlink.com 1.10,2013-01-26 11:18:00,
2013-01-26 05:33:00,30.1,29.0,30.26,NNE,14,0.0,2.0,96,0.00,,,0.00,weatherlink.com 1.10,2013-01-26 11:33:00,
2013-01-26 05:48:00,30.1,29.0,30.26,NNE,14,1.0,1.0,96,0.00,,,0.00,weatherlink.com 1.10,2013-01-26 11:48:00,
2013-01-26 06:03:00,30.0,29.0,30.26,NNE,14,0.0,1.0,96,0.00,,,0.00,weatherlink.com 1.10,2013-01-26 12:03:00,
2013-01-26 06:18:00,30.1,29.0,30.27,NNE,14,0.0,1.0,96,0.00,,,0.00,weatherlink.com 1.10,2013-01-26 12:18:00,
2013-01-26 06:33:00,30.3,29.0,30.27,NNE,14,0.0,1.0,96,0.00,,,0.00,weatherlink.com 1.10,2013-01-26 12:33:00,
2013-01-26 06:48:00,30.6,30.0,30.27,NNE,14,1.0,2.0,96,0.00,,,0.00,weatherlink.com 1.10,2013-01-26 12:48:00,
2013-01-26 07:03:00,31.0,30.0,30.27,ESE,108,0.0,1.0,96,0.00,,,0.00,weatherlink.com 1.10,2013-01-26 13:03:00,
2013-01-26 07:18:00,31.4,30.0,30.28,ESE,108,0.0,2.0,96,0.00,,,0.00,weatherlink.com 1.10,2013-01-26 13:18:00,
2013-01-26 07:33:00,31.6,31.0,30.28,East,84,0.0,3.0,96,0.00,,,0.00,weatherlink.com 1.10,2013-01-26 13:33:00,
2013-01-26 07:48:00,32.1,31.0,30.28,East,85,0.0,2.0,96,0.00,,,0.00,weatherlink.com 1.10,2013-01-26 13:48:00,
2013-01-26 08:03:00,32.7,32.0,30.28,East,94,0.0,2.0,96,0.00,,,0.00,weatherlink.com 1.10,2013-01-26 14:03:00,
2013-01-26 08:18:00,33.1,32.0,30.28,East,94,0.0,2.0,96,0.00,,,0.00,weatherlink.com 1.10,2013-01-26 14:18:00,
2013-01-26 08:33:00,33.7,33.0,30.29,East,93,0.0,2.0,96,0.00,,,0.00,weatherlink.com 1.10,2013-01-26 14:33:00,
2013-01-26 08:48:00,34.6,34.0,30.29,East,93,0.0,2.0,96,0.00,,,0.00,weatherlink.com 1.10,2013-01-26 14:48:00,
2013-01-26 09:03:00,35.5,34.0,30.30,East,97,1.0,2.0,95,0.00,,,0.00,weatherlink.com 1.10,2013-01-26 15:03:00,
2013-01-26 09:18:00,36.4,35.0,30.30,East,86,1.0,3.0,94,0.00,,,0.00,weatherlink.com 1.10,2013-01-26 15:18:00,
2013-01-26 09:33:00,37.3,35.0,30.30,SE,135,1.0,3.0,92,0.00,,,0.00,weatherlink.com 1.10,2013-01-26 15:33:00,
2013-01-26 09:48:00,38.3,35.0,30.31,East,83,1.0,3.0,88,0.00,,,0.00,weatherlink.com 1.10,2013-01-26 15:48:00,
2013-01-26 10:03:00,39.8,36.0,30.32,SSE,166,2.0,3.0,86,0.00,,,0.00,weatherlink.com 1.10,2013-01-26 16:03:00,
2013-01-26 10:18:00,40.5,36.0,30.32,North,9,0.0,4.0,83,0.00,,,0.00,weatherlink.com 1.10,2013-01-26 16:18:00,
2013-01-26 10:33:00,42.4,36.0,30.32,NE,42,3.0,5.0,77,0.00,,,0.00,weatherlink.com 1.10,2013-01-26 16:33:00,
2013-01-26 10:48:00,44.7,36.0,30.31,NNE,29,1.0,6.0,71,0.00,,,0.00,weatherlink.com 1.10,2013-01-26 16:48:00,
2013-01-26 11:03:00,46.4,35.0,30.31,NE,45,4.0,8.0,64,0.00,,,0.00,weatherlink.com 1.10,2013-01-26 17:03:00,
2013-01-26 11:18:00,47.8,35.0,30.30,ESE,102,5.0,7.0,62,0.00,,,0.00,weatherlink.com 1.10,2013-01-26 17:18:00,
2013-01-26 11:34:00,49.6,35.0,30.30,ENE,60,1.0,7.0,57,0.00,,,0.00,weatherlink.com 1.10,2013-01-26 17:34:00,
2013-01-26 11:49:00,52.0,34.0,30.29,SSE,147,2.0,9.0,50,0.00,,,0.00,weatherlink.com 1.10,2013-01-26 17:49:00,
2013-01-26 12:04:00,53.1,34.0,30.29,NE,43,3.0,4.0,48,0.00,,,0.00,weatherlink.com 1.10,2013-01-26 18:04:00,
2013-01-26 12:19:00,53.3,33.0,30.29,South,191,2.0,6.0,46,0.00,,,0.00,weatherlink.com 1.10,2013-01-26 18:19:00,
2013-01-26 12:34:00,53.7,33.0,30.28,SSE,153,5.0,8.0,45,0.00,,,0.00,weatherlink.com 1.10,2013-01-26 18:34:00,
2013-01-26 12:49:00,53.3,33.0,30.27,SE,131,1.0,6.0,47,0.00,,,0.00,weatherlink.com 1.10,2013-01-26 18:49:00,
2013-01-26 13:04:00,54.4,33.0,30.26,NW,318,2.0,4.0,45,0.00,,,0.00,weatherlink.com 1.10,2013-01-26 19:04:00,
2013-01-26 13:19:00,53.2,32.0,30.26,East,95,2.0,6.0,45,0.00,,,0.00,weatherlink.com 1.10,2013-01-26 19:19:00,
2013-01-26 13:34:00,53.1,32.0,30.26,NNE,19,3.0,7.0,45,0.00,,,0.00,weatherlink.com 1.10,2013-01-26 19:34:00,
2013-01-26 13:49:00,53.8,32.0,30.26,SSE,154,3.0,6.0,43,0.00,,,0.00,weatherlink.com 1.10,2013-01-26 19:49:00,
2013-01-26 14:04:00,54.1,30.0,30.26,NE,46,1.0,5.0,40,0.00,,,0.00,weatherlink.com 1.10,2013-01-26 20:04:00,
2013-01-26 14:19:00,53.1,29.0,30.25,NE,51,1.0,5.0,40,0.00,,,0.00,weatherlink.com 1.10,2013-01-26 20:19:00,
2013-01-26 14:34:00,52.8,31.0,30.24,NE,49,3.0,5.0,44,0.00,,,0.00,weatherlink.com 1.10,2013-01-26 20:34:00,
2013-01-26 14:49:00,53.1,32.0,30.24,NE,48,2.0,6.0,44,0.00,,,0.00,weatherlink.com 1.10,2013-01-26 20:49:00,
2013-01-26 15:04:00,52.7,32.0,30.25,NNE,33,1.0,4.0,45,0.00,,,0.00,weatherlink.com 1.10,2013-01-26 21:04:00,
2013-01-26 15:19:00,52.8,32.0,30.25,NE,56,1.0,5.0,46,0.00,,,0.00,weatherlink.com 1.10,2013-01-26 21:19:00,
2013-01-26 15:34:00,52.4,31.0,30.24,East,80,2.0,5.0,45,0.00,,,0.00,weatherlink.com 1.10,2013-01-26 21:34:00,
2013-01-26 15:49:00,51.7,31.0,30.24,NNW,339,1.0,6.0,46,0.00,,,0.00,weatherlink.com 1.10,2013-01-26 21:49:00,
2013-01-26 16:04:00,51.9,32.0,30.24,ENE,65,2.0,5.0,46,0.00,,,0.00,weatherlink.com 1.10,2013-01-26 22:04:00,
2013-01-26 16:19:00,51.5,31.0,30.24,NE,55,3.0,4.0,46,0.00,,,0.00,weatherlink.com 1.10,2013-01-26 22:19:00,
2013-01-26 16:34:00,51.3,31.0,30.24,NNE,23,2.0,4.0,46,0.00,,,0.00,weatherlink.com 1.10,2013-01-26 22:34:00,
2013-01-26 16:49:00,50.9,31.0,30.24,NNE,18,1.0,4.0,47,0.00,,,0.00,weatherlink.com 1.10,2013-01-26 22:49:00,
2013-01-26 17:04:00,50.8,32.0,30.24,NE,47,1.0,3.0,48,0.00,,,0.00,weatherlink.com 1.10,2013-01-26 23:04:00,
2013-01-26 17:19:00,50.3,33.0,30.24,ENE,57,1.0,5.0,51,0.00,,,0.00,weatherlink.com 1.10,2013-01-26 23:19:00,
2013-01-26 17:34:00,49.5,33.0,30.24,North,11,1.0,4.0,53,0.00,,,0.00,weatherlink.com 1.10,2013-01-26 23:34:00,
2013-01-26 17:49:00,49.0,33.0,30.24,NNE,31,3.0,5.0,54,0.00,,,0.00,weatherlink.com 1.10,2013-01-26 23:49:00,
2013-01-26 18:04:00,48.7,33.0,30.24,ENE,64,3.0,5.0,55,0.00,,,0.00,weatherlink.com 1.10,2013-01-27 00:04:00,
2013-01-26 18:19:00,48.4,33.0,30.25,ENE,63,1.0,3.0,56,0.00,,,0.00,weatherlink.com 1.10,2013-01-27 00:19:00,
2013-01-26 18:34:00,48.2,33.0,30.25,East,93,1.0,3.0,57,0.00,,,0.00,weatherlink.com 1.10,2013-01-27 00:34:00,
2013-01-26 18:49:00,48.1,33.0,30.25,ENE,64,1.0,2.0,57,0.00,,,0.00,weatherlink.com 1.10,2013-01-27 00:49:00,
2013-01-26 19:04:00,47.9,33.0,30.25,ENE,66,2.0,3.0,57,0.00,,,0.00,weatherlink.com 1.10,2013-01-27 01:04:00,
2013-01-26 19:19:00,47.8,33.0,30.25,NNE,33,1.0,4.0,58,0.00,,,0.00,weatherlink.com 1.10,2013-01-27 01:19:00,
2013-01-26 19:34:00,47.7,33.0,30.25,NE,39,2.0,4.0,58,0.00,,,0.00,weatherlink.com 1.10,2013-01-27 01:34:00,
2013-01-26 19:49:00,47.6,34.0,30.25,NE,48,1.0,5.0,59,0.00,,,0.00,weatherlink.com 1.10,2013-01-27 01:49:00,
2013-01-26 20:04:00,47.5,34.0,30.25,ESE,120,1.0,5.0,59,0.00,,,0.00,weatherlink.com 1.10,2013-01-27 02:04:00,
2013-01-26 20:19:00,47.4,34.0,30.26,ENE,65,1.0,5.0,59,0.00,,,0.00,weatherlink.com 1.10,2013-01-27 02:19:00,
2013-01-26 20:34:00,47.4,34.0,30.25,East,81,1.0,4.0,59,0.00,,,0.00,weatherlink.com 1.10,2013-01-27 02:34:00,
2013-01-26 20:49:00,47.3,33.0,30.25,NNE,23,1.0,6.0,59,0.00,,,0.00,weatherlink.com 1.10,2013-01-27 02:49:00,
2013-01-26 21:04:00,47.4,34.0,30.24,NNW,343,1.0,5.0,59,0.00,,,0.00,weatherlink.com 1.10,2013-01-27 03:04:00,
2013-01-26 21:19:00,47.3,33.0,30.24,ENE,75,2.0,5.0,59,0.00,,,0.00,weatherlink.com 1.10,2013-01-27 03:19:00,
2013-01-26 21:34:00,47.2,33.0,30.24,NE,50,1.0,4.0,59,0.00,,,0.00,weatherlink.com 1.10,2013-01-27 03:34:00,
2013-01-26 21:49:00,47.3,33.0,30.25,ESE,106,1.0,4.0,59,0.00,,,0.00,weatherlink.com 1.10,2013-01-27 03:49:00,
2013-01-26 22:04:00,47.4,34.0,30.25,ENE,69,1.0,5.0,59,0.00,,,0.00,weatherlink.com 1.10,2013-01-27 04:04:00,
2013-01-26 22:19:00,47.4,34.0,30.25,SE,138,1.0,4.0,59,0.00,,,0.00,weatherlink.com 1.10,2013-01-27 04:19:00,
2013-01-26 22:34:00,47.4,34.0,30.25,ENE,73,1.0,3.0,60,0.00,,,0.00,weatherlink.com 1.10,2013-01-27 04:34:00,
2013-01-26 22:49:00,47.4,34.0,30.25,SE,132,1.0,2.0,60,0.00,,,0.00,weatherlink.com 1.10,2013-01-27 04:49:00,
2013-01-26 23:04:00,47.4,34.0,30.25,SE,124,0.0,3.0,61,0.00,,,0.00,weatherlink.com 1.10,2013-01-27 05:04:00,
2013-01-26 23:19:00,47.3,34.0,30.25,ESE,116,1.0,3.0,61,0.00,,,0.00,weatherlink.com 1.10,2013-01-27 05:19:00,
2013-01-26 23:34:00,47.1,35.0,30.25,ESE,116,0.0,2.0,62,0.00,,,0.00,weatherlink.com 1.10,2013-01-27 05:34:00,
2013-01-26 23:49:00,47.0,34.0,30.24,ESE,115,1.0,2.0,62,0.00,,,0.00,weatherlink.com 1.10,2013-01-27 05:49:00,